Location: Horowhenua
(40.7500°S, 175.3333°E)
Time: 06:12:03
(UTC+00:00)

GEOS 3 Rocket - Pass Details

Date: 28 January 2023
Orbit: 772 x 846 km, 115.0° (Epoch: 01 April)

Event Time Altitude Azimuth Distance (km) Brightness Sun altitude
Rises 13:04:14 0° 149° (SSE) 3,302 7.8 -30.6°
Reaches altitude 10° 13:06:34 10° 153° (SSE) 2,360 6.8 -30.5°
Enters shadow 13:11:09 52° 211° (SSW) 965 4.1 -30.4°
